IW8RUI-5 Weather Reports


time (UTC)temp
C
wind
direction
speed
KPH
gust
KPH
rain 1hr
cm
rain 24hr
cm
rain mn
cm
humidity
%
barometer
mb
20260505124926 17 195 0.0 0.0 0.00 0.00 0.00 13 1012.0
20260505124426 17 181 0.0 0.0 0.00 0.00 0.00 13 1012.0
20260505123927 17 178 0.0 0.0 0.00 0.00 0.00 13 1012.0
20260505123426 17 202 0.0 0.0 0.00 0.00 0.00 13 1012.0
20260505122927 17 178 0.0 0.0 0.00 0.00 0.00 13 1012.0
20260505122426 17 197 0.0 0.0 0.00 0.00 0.00 13 1012.0
20260505121926 17 193 0.0 0.0 0.00 0.00 0.00 16 1012.0
20260505121426 17 204 0.0 0.0 0.00 0.00 0.00 16 1012.0
20260505120926 16 179 0.0 0.0 0.00 0.00 0.00 13 1012.0
20260505120426 16 178 0.0 0.0 0.00 0.00 0.00 11 1012.0
20260505115926 16 179 0.0 0.0 0.00 0.00 0.00 10 1012.0
20260505115426 16 190 0.0 0.0 0.00 0.00 0.00 10 1012.0
20260505114426 15 206 0.0 0.0 0.00 0.00 0.00 10 1012.0
20260505113926 15 180 0.0 0.0 0.00 0.00 0.00 10 1012.0
20260505113426 15 205 0.0 0.0 0.00 0.00 0.00 10 1012.0
20260505112926 15 200 0.0 0.0 0.00 0.00 0.00 10 1012.0
20260505112426 15 198 0.0 0.0 0.00 0.00 0.00 10 1012.0
20260505111926 15 199 0.0 0.0 0.00 0.00 0.00 10 1012.0
20260505111427 15 205 0.0 0.0 0.00 0.00 0.00 10 1012.0
20260505110926 15 178 0.0 0.0 0.00 0.00 0.00 10 1012.0
20260505110426 15 180 0.0 0.0 0.00 0.00 0.00 10 1012.0
20260505101926 15 191 0.0 0.0 0.00 0.00 0.00 10 1012.0
20260505100926 15 185 0.0 0.0 0.00 0.00 0.00 10 1012.0
20260505100426 15 164 0.0 0.0 0.00 0.00 0.00 10 1012.0
20260505095926 15 165 0.0 0.0 0.00 0.00 0.00 10 1012.0
20260505095426 15 174 0.0 0.0 0.00 0.00 0.00 10 1012.0
20260505094926 15 165 0.0 0.0 0.00 0.00 0.00 10 1012.0
20260505094426 15 167 0.0 0.0 0.00 0.00 0.00 10 1013.0
20260505093926 15 162 0.0 0.0 0.00 0.00 0.00 10 1013.0
20260505093426 15 185 0.0 0.0 0.00 0.00 0.00 10 1013.0
20260505092926 15 181 0.0 0.0 0.00 0.00 0.00 10 1012.0
20260505092426 15 168 0.0 0.0 0.00 0.00 0.00 10 1012.0
20260505091926 15 162 0.0 0.0 0.00 0.00 0.00 10 1012.0
20260505091426 14 165 0.0 0.0 0.00 0.00 0.00 10 1013.0
20260505090926 13 164 0.0 0.0 0.00 0.00 0.00 10 1013.0
20260505090426 13 161 0.0 0.0 0.00 0.00 0.00 10 1013.0
20260505085926 14 182 0.0 0.0 0.00 0.00 0.00 10 1012.0
20260505085426 14 176 0.0 0.0 0.00 0.00 0.00 10 1012.0
20260505084926 14 175 0.0 0.0 0.00 0.00 0.00 10 1012.0
20260505084426 13 178 0.0 0.0 0.00 0.00 0.00 10 1013.0
20260505083926 13 179 0.0 0.0 0.00 0.00 0.00 10 1013.0
20260505083426 13 181 0.0 0.0 0.00 0.00 0.00 10 1013.0
20260505082926 13 184 0.0 0.0 0.00 0.00 0.00 10 1012.0
20260505082426 13 185 0.0 0.0 0.00 0.00 0.00 10 1012.0
20260505081926 14 186 0.0 0.0 0.00 0.00 0.00 10 1012.0
20260505081426 13 161 0.0 0.0 0.00 0.00 0.00 10 1012.0
20260505080926 13 187 0.0 0.0 0.00 0.00 0.00 10 1012.0
20260505080426 13 180 0.0 0.0 0.00 0.00 0.00 10 1012.0
20260505075926 13 187 0.0 0.0 0.00 0.00 0.00 10 1012.0
20260505075426 13 164 0.0 0.0 0.00 0.00 0.00 10 1012.0
20260505074926 13 174 0.0 0.0 0.00 0.00 0.00 10 1012.0
20260505074426 13 189 0.0 0.0 0.00 0.00 0.00 12 1012.0
20260505073926 13 181 0.0 0.0 0.00 0.00 0.00 10 1012.0
20260505073426 13 190 0.0 0.0 0.00 0.00 0.00 10 1012.0
20260505072926 13 185 0.0 0.0 0.00 0.00 0.00 10 1012.0
20260505072426 13 187 0.0 0.0 0.00 0.00 0.00 10 1012.0
20260505071926 13 164 0.0 0.0 0.00 0.00 0.00 10 1012.0
20260505071426 13 179 0.0 0.0 0.00 0.00 0.00 10 1012.0
20260505070926 12 181 0.0 0.0 0.00 0.00 0.00 10 1012.0
20260505070426 12 175 0.0 0.0 0.00 0.00 0.00 10 1012.0
20260505065926 12 162 0.0 0.0 0.00 0.00 0.00 10 1012.0
20260505065426 12 184 0.0 0.0 0.00 0.00 0.00 10 1012.0
20260505064926 12 186 0.0 0.0 0.00 0.00 0.00 10 1012.0
20260505064426 12 185 0.0 0.0 0.00 0.00 0.00 10 1012.0
20260505063926 11 180 0.0 0.0 0.00 0.00 0.00 10 1012.0
20260505063426 11 166 0.0 0.0 0.00 0.00 0.00 10 1012.0
20260505062926 11 185 0.0 0.0 0.00 0.00 0.00 10 1012.0
20260505062426 10 159 0.0 0.0 0.00 0.00 0.00 10 1012.0
20260505061926 10 185 0.0 0.0 0.00 0.00 0.00 10 1012.0
20260505061426 10 183 0.0 0.0 0.00 0.00 0.00 10 1012.0
20260505060926 10 175 0.0 0.0 0.00 0.00 0.00 10 1012.0
20260505060426 10 175 0.0 0.0 0.00 0.00 0.00 10 1012.0
20260505055926 10 162 0.0 0.0 0.00 0.00 0.00 10 1012.0
20260505055426 10 162 0.0 0.0 0.00 0.00 0.00 10 1012.0
20260505054926 10 176 0.0 0.0 0.00 0.00 0.00 10 1012.0
20260505054426 10 162 0.0 0.0 0.00 0.00 0.00 10 1012.0
20260505053926 10 186 0.0 0.0 0.00 0.00 0.00 10 1012.0
20260505053426 10 172 0.0 0.0 0.00 0.00 0.00 10 1012.0
20260505052926 10 159 0.0 0.0 0.00 0.00 0.00 10 1012.0
20260505051926 9 181 0.0 0.0 0.00 0.00 0.00 10 1012.0
20260505051426 9 168 0.0 0.0 0.00 0.00 0.00 10 1012.0
20260505050926 8 167 0.0 0.0 0.00 0.00 0.00 10 1012.0
20260505050426 8 159 0.0 0.0 0.00 0.00 0.00 10 1012.0
20260505041426 8 162 0.0 0.0 0.00 0.00 0.00 10 1012.0
20260505040926 8 177 0.0 0.0 0.00 0.00 0.00 10 1012.0
20260505040426 8 174 0.0 0.0 0.00 0.00 0.00 10 1012.0
20260505035926 8 158 0.0 0.0 0.00 0.00 0.00 10 1011.0
20260505035426 8 171 0.0 0.0 0.00 0.00 0.00 10 1011.0
20260505034926 8 175 0.0 0.0 0.00 0.00 0.00 10 1011.0
20260505034426 8 158 0.0 0.0 0.00 0.00 0.00 10 1011.0
20260505033926 8 178 0.0 0.0 0.00 0.00 0.00 10 1011.0
20260505033426 8 164 0.0 0.0 0.00 0.00 0.00 10 1011.0
20260505032926 8 183 0.0 0.0 0.00 0.00 0.00 10 1012.0
20260505032426 8 183 0.0 0.0 0.00 0.00 0.00 10 1012.0
20260505031926 8 161 0.0 0.0 0.00 0.00 0.00 10 1012.0
20260505031426 8 173 0.0 0.0 0.00 0.00 0.00 10 1012.0
20260505030926 8 181 0.0 0.0 0.00 0.00 0.00 10 1012.0
20260505030426 8 158 0.0 0.0 0.00 0.00 0.00 10 1012.0
20260505025926 8 175 0.0 0.0 0.00 0.00 0.00 10 1012.0
20260505025426 8 185 0.0 0.0 0.00 0.00 0.00 10 1012.0
20260505024927 8 181 0.0 0.0 0.00 0.00 0.00 10 1012.0
20260505024426 8 172 0.0 0.0 0.00 0.00 0.00 10 1012.0
20260505023926 8 170 0.0 0.0 0.00 0.00 0.00 10 1012.0
20260505023426 7 182 0.0 0.0 0.00 0.00 0.00 10 1012.0
20260505022926 7 170 0.0 0.0 0.00 0.00 0.00 10 1012.0
20260505022426 7 177 0.0 0.0 0.00 0.00 0.00 10 1012.0
20260505021926 7 176 0.0 0.0 0.00 0.00 0.00 10 1012.0
20260505020926 7 179 0.0 0.0 0.00 0.00 0.00 10 1012.0
20260505020426 7 168 0.0 0.0 0.00 0.00 0.00 10 1012.0
20260505015926 7 158 0.0 0.0 0.00 0.00 0.00 10 1012.0
20260505015426 7 178 0.0 0.0 0.00 0.00 0.00 10 1012.0
20260505014926 7 181 0.0 0.0 0.00 0.00 0.00 10 1012.0
20260505014426 7 182 0.0 0.0 0.00 0.00 0.00 10 1012.0
20260505013926 7 170 0.0 0.0 0.00 0.00 0.00 10 1012.0
20260505013426 7 166 0.0 0.0 0.00 0.00 0.00 10 1012.0
20260505012926 7 178 0.0 0.0 0.00 0.00 0.00 10 1012.0
20260505012426 7 169 0.0 0.0 0.00 0.00 0.00 10 1012.0
20260505011926 7 170 0.0 0.0 0.00 0.00 0.00 10 1012.0
20260505011426 7 173 0.0 0.0 0.00 0.00 0.00 10 1012.0
20260505010926 7 182 0.0 0.0 0.00 0.00 0.00 10 1012.0
20260505010426 7 160 0.0 0.0 0.00 0.00 0.00 10 1012.0
20260505005926 7 170 0.0 0.0 0.00 0.00 0.00 10 1012.0
20260505005426 7 157 0.0 0.0 0.00 0.00 0.00 10 1012.0
20260505004926 7 158 0.0 0.0 0.00 0.00 0.00 10 1012.0
20260505004426 7 163 0.0 0.0 0.00 0.00 0.00 10 1012.0
20260505003926 7 163 0.0 0.0 0.00 0.00 0.00 10 1012.0
20260505002926 7 182 0.0 0.0 0.00 0.00 0.00 10 1012.0
20260505002426 7 181 0.0 0.0 0.00 0.00 0.00 10 1012.0
20260505001926 7 180 0.0 0.0 0.00 0.00 0.00 10 1012.0
20260505001426 7 169 0.0 0.0 0.00 0.00 0.00 10 1013.0
20260505000926 8 169 0.0 0.0 0.00 0.00 0.00 10 1013.0
20260505000428 8 182 0.0 0.0 0.00 0.00 0.00 10 1013.0
20260504235926 8 181 0.0 0.0 0.00 0.00 0.00 10 1013.0
20260504235426 8 157 0.0 0.0 0.00 0.00 0.00 10 1013.0
20260504234926 8 182 0.0 0.0 0.00 0.00 0.00 10 1013.0
20260504234426 8 170 0.0 0.0 0.00 0.00 0.00 10 1013.0
20260504233926 8 182 0.0 0.0 0.00 0.00 0.00 10 1013.0
20260504233426 8 180 0.0 0.0 0.00 0.00 0.00 10 1013.0
20260504232926 8 182 0.0 0.0 0.00 0.00 0.00 10 1013.0
20260504232426 8 156 0.0 0.0 0.00 0.00 0.00 10 1013.0
20260504231926 8 178 0.0 0.0 0.00 0.00 0.00 10 1013.0
20260504231426 8 156 0.0 0.0 0.00 0.00 0.00 10 1013.0
20260504230926 8 181 0.0 0.0 0.00 0.00 0.00 10 1013.0
20260504230426 8 163 0.0 0.0 0.00 0.00 0.00 10 1013.0
20260504225926 8 173 0.0 0.0 0.00 0.00 0.00 10 1013.0
20260504225426 8 182 0.0 0.0 0.00 0.00 0.00 10 1013.0
20260504224926 8 179 0.0 0.0 0.00 0.00 0.00 10 1013.0
20260504224426 8 181 0.0 0.0 0.00 0.00 0.00 10 1013.0
20260504223926 8 181 0.0 0.0 0.00 0.00 0.00 10 1013.0
20260504223426 8 156 0.0 0.0 0.00 0.00 0.00 10 1013.0
20260504222926 8 160 0.0 0.0 0.00 0.00 0.00 10 1013.0
20260504222426 8 174 0.0 0.0 0.00 0.00 0.00 10 1013.0
20260504221926 8 166 0.0 0.0 0.00 0.00 0.00 10 1013.0
20260504221426 8 181 0.0 0.0 0.00 0.00 0.00 10 1013.0
20260504220926 8 155 0.0 0.0 0.00 0.00 0.00 10 1013.0
20260504220426 8 161 0.0 0.0 0.00 0.00 0.00 10 1013.0
20260504215927 8 156 0.0 0.0 0.00 0.00 0.00 10 1013.0
20260504215426 8 180 0.0 0.0 0.00 0.00 0.00 11 1013.0
20260504214926 8 156 0.0 0.0 0.00 0.00 0.00 11 1013.0
20260504214426 8 167 0.0 0.0 0.00 0.00 0.00 11 1013.0
20260504213926 8 175 0.0 0.0 0.00 0.00 0.00 14 1013.0
20260504213426 8 180 0.0 0.0 0.00 0.00 0.00 14 1013.0
20260504212926 8 162 0.0 0.0 0.00 0.00 0.00 14 1013.0
20260504211926 8 179 0.0 0.0 0.00 0.00 0.00 14 1013.0
20260504211426 8 160 0.0 0.0 0.00 0.00 0.00 14 1013.0
20260504210926 8 182 0.0 0.0 0.00 0.00 0.00 14 1013.0
20260504205926 8 182 0.0 0.0 0.00 0.00 0.00 14 1013.0
20260504205426 8 158 0.0 0.0 0.00 0.00 0.00 14 1013.0
20260504204926 8 171 0.0 0.0 0.00 0.00 0.00 14 1013.0
20260504204426 8 170 0.0 0.0 0.00 0.00 0.00 14 1013.0
20260504203926 8 169 0.0 0.0 0.00 0.00 0.00 14 1013.0
20260504203425 8 157 0.0 0.0 0.00 0.00 0.00 14 1013.0
20260504202926 8 178 0.0 0.0 0.00 0.00 0.00 16 1013.0
20260504202426 8 182 0.0 0.0 0.00 0.00 0.00 16 1013.0
20260504201926 8 163 0.0 0.0 0.00 0.00 0.00 16 1013.0
20260504201426 8 161 0.0 0.0 0.00 0.00 0.00 16 1014.0
20260504200926 8 167 0.0 0.0 0.00 0.00 0.00 16 1014.0
20260504200425 8 160 0.0 0.0 0.00 0.00 0.00 16 1014.0
20260504195926 8 160 0.0 0.0 0.00 0.00 0.00 16 1014.0
20260504195426 8 186 0.0 0.0 0.00 0.00 0.00 16 1014.0
20260504194926 8 161 0.0 0.0 0.00 0.00 0.00 16 1014.0
20260504194426 8 184 0.0 0.0 0.00 0.00 0.00 16 1014.0
20260504193927 8 177 0.0 0.0 0.00 0.00 0.00 16 1014.0
20260504193426 9 187 0.0 0.0 0.00 0.00 0.00 16 1014.0
20260504192926 9 187 0.0 0.0 0.00 0.00 0.00 16 1013.0
20260504192425 9 177 0.0 0.0 0.00 0.00 0.00 16 1013.0
20260504191926 9 185 0.0 0.0 0.00 0.00 0.00 16 1013.0
20260504191426 9 185 0.0 0.0 0.00 0.00 0.00 14 1013.0
20260504190926 9 184 0.0 0.0 0.00 0.00 0.00 14 1013.0
20260504190425 10 168 0.0 0.0 0.00 0.00 0.00 14 1013.0
20260504185926 10 166 0.0 0.0 0.00 0.00 0.00 14 1013.0
20260504185426 10 173 0.0 0.0 0.00 0.00 0.00 14 1013.0
20260504184925 10 181 0.0 0.0 0.00 0.00 0.00 11 1013.0
20260504184425 10 170 0.0 0.0 0.00 0.00 0.00 11 1013.0
20260504183925 10 181 0.0 0.0 0.00 0.00 0.00 11 1013.0
20260504183427 10 190 0.0 0.0 0.00 0.00 0.00 11 1013.0
20260504182925 10 165 0.0 0.0 0.00 0.00 0.00 11 1013.0
20260504182426 11 184 0.0 0.0 0.00 0.00 0.00 11 1013.0
20260504181925 11 178 0.0 0.0 0.00 0.00 0.00 11 1013.0
20260504181425 11 171 0.0 0.0 0.00 0.00 0.00 10 1013.0
20260504180925 11 173 0.0 0.0 0.00 0.00 0.00 10 1013.0
20260504180425 12 165 0.0 0.0 0.00 0.00 0.00 10 1013.0
20260504175925 13 179 0.0 0.0 0.00 0.00 0.00 10 1013.0
20260504175425 13 181 0.0 0.0 0.00 0.00 0.00 10 1013.0
20260504174925 14 174 0.0 0.0 0.00 0.00 0.00 10 1013.0
20260504174425 15 164 0.0 0.0 0.00 0.00 0.00 10 1013.0
20260504173925 15 164 0.0 0.0 0.00 0.00 0.00 10 1013.0
20260504173425 15 163 0.0 0.0 0.00 0.00 0.00 11 1013.0
20260504172925 16 164 0.0 0.0 0.00 0.00 0.00 11 1013.0
20260504172425 16 185 0.0 0.0 0.00 0.00 0.00 11 1013.0
20260504171925 17 182 0.0 0.0 0.00 0.00 0.00 10 1013.0
20260504171425 17 182 0.0 0.0 0.00 0.00 0.00 10 1013.0
20260504170925 16 176 0.0 0.0 0.00 0.00 0.00 10 1013.0
20260504170425 16 173 0.0 0.0 0.00 0.00 0.00 10 1013.0
20260504160426 17 158 0.0 0.0 0.00 0.00 0.00 13 1013.0
20260504150925 16 160 0.0 0.0 0.00 0.00 0.00 16 1013.0
20260504150425 16 173 0.0 0.0 0.00 0.00 0.00 16 1013.0
20260504140925 15 173 0.0 0.0 0.00 0.00 0.00 14 1013.0
20260504140425 15 162 0.0 0.0 0.00 0.00 0.00 14 1013.0